Regional Weather Roundup
Issued by NWS

Current Version | Previous Version | Text Only | Print | Product List | Glossary On
Versions: 1 2 3 4 5 6 7 8 9 10 11 12 13 14 15 16 17 18 19 20 21 22 23 24 25 26 27 28 29 30 31 32 33 34 35 36 37 38 39 40 41 42 43 44 45 46 47 48 49 50
000
ASUS43 KDMX 181601
RWRIA

WEATHER ROUNDUP FOR IOWA
NATIONAL WEATHER SERVICE DES MOINES IA
1000 AM CST FRI JAN 18 2019

NOTE: "FAIR" INDICATES FEW OR NO CLOUDS BELOW 12,000 FEET WITH NO
SIGNIFICANT WEATHER AND/OR OBSTRUCTIONS TO VISIBILITY.

* - THESE STATIONS ARE NOT NWS STATIONS...THUS NOT UNDER NWS
QUALITY CONTROL.  THEY ALSO DO NOT REPORT WEATHER SUCH
AS PRECIPITATION OR FOG.

IAZ001>003-012>014-020>022-031>034-043>046-181700-
   NORTHWEST IOWA

CITY           SKY/WX    TMP DP  RH WIND       PRES   REMARKS
CARROLL *      CLOUDY    19  14  79 E16       30.04S WCI   5
CHEROKEE *     CLOUDY    18  13  80 E10       30.09R WCI   6
DENISON *      CLOUDY    19  14  79 E16       30.03R WCI   5
LE MARS *      CLOUDY    18  12  79 NE18      30.07R WCI   2
ORANGE CITY *  LGT SNOW  18  16  93 E10G20    30.07R WCI   6
SHELDON *      LGT SNOW  16  14  93 NE17      30.07R WCI   0
SIOUX CITY     CLOUDY    19  10  68 NE14G25   30.05R WCI   6
SPENCER        LGT SNOW  16  10  77 NE17      30.10S WCI   0
STORM LAKE *   CLOUDY    16  12  86 E15G25    30.06R WCI   1
$$

IAZ055>058-069>071-079>083-090>094-181700-
   SOUTHWEST IOWA

CITY           SKY/WX    TMP DP  RH WIND       PRES   REMARKS
ATLANTIC *     CLOUDY    21  21 100 E13G25    30.00R FOG     WCI   9
AUDUBON *      CLOUDY    19  16  86 CALM      30.01R
CLARINDA *     CLOUDY    28  25  86 E12G18    29.98F WCI  18
COUNCIL BLFS * CLOUDY    23  23 100 E17G23    29.95R WCI   9
CRESTON *      CLOUDY    23  21  93 E16G23    29.99F WCI  10
HARLAN  *      CLOUDY    21  19  93 E15       30.00R WCI   8
LAMONI         CLOUDY    26  23  88 E12       29.99F WCI  16
RED OAK *      CLOUDY    27  25  93 E16G24    29.96S WCI  14
SHENANDOAH *   CLOUDY    30  27  86 E15       29.96R WCI  19
$$

IAZ047>049-059>061-072>074-084-181700-
   CENTRAL IOWA

CITY           SKY/WX    TMP DP  RH WIND       PRES   REMARKS
AMES           PTSUNNY   19  12  74 E13G18    30.09F WCI   6
ANKENY *       PTSUNNY   19  14  79 MISG      30.09F
BOONE *        CLOUDY    18  14  86 E17       30.05F WCI   2
CHARITON *     CLOUDY    23  19  86 E15       30.06F WCI  10
DES MOINES     CLOUDY    20  13  74 E12       30.07F WCI   8
GRINNELL*      CLOUDY    19  15  85 NE7       30.12S WCI  10
KNOXVILLE *    CLOUDY    19  19 100 E10       30.09F WCI   8
MARSHALLTOWN   CLOUDY    19  14  81 E10       30.13R WCI   7
NEWTON *       MOSUNNY   19  16  86 E12       30.10F WCI   7
PELLA *        CLOUDY    21  15  77 E5        30.12S WCI  15
PERRY *        CLOUDY    20  14  78 E13       30.06S WCI   7
$$

IAZ004>006-015-016-023>025-035-036-181700-
   NORTH CENTRAL IOWA

CITY           SKY/WX    TMP DP  RH WIND       PRES   REMARKS
ALGONA *       LGT SNOW  14  12  92 NE16      30.10S WCI  -2
CLARION *      CLOUDY    18  12  79 E20       30.10F WCI   1
ESTHERVILLE    SNOW      11   8  88 NE20      30.11S VSB 1/4 WCI  -7
FORT DODGE *   CLOUDY    19  12  74 E15       30.08F WCI   5
MASON CITY     LGT SNOW  14  11  87 NE15      30.16S VSB 3/4 WCI  -1
FOREST CITY *  SNOW      14  12  92 NE9       30.14S VSB 1/2 WCI   2
IOWA FALLS *   CLOUDY    19  14  80 E12       30.13R WCI   7
$$

IAZ007>011-017>019-026>030-037>042-050>054-066-181700-
   NORTHEAST IOWA

CITY           SKY/WX    TMP DP  RH WIND       PRES   REMARKS
CEDAR RAPIDS   CLOUDY    21  17  84 E7        30.14R WCI  12
CHARLES CITY * FLURRIES  16   9  73 NE10      30.17R WCI   3
DECORAH *      CLOUDY    16   7  67 E7        30.17R WCI   6
DUBUQUE        CLOUDY    20  14  77 N7        30.17R WCI  11
MONTICELLO *     N/A    N/A N/A N/A MISG        N/A
WATERLOO       CLOUDY    20  13  74 E13       30.15F WCI   7
$$

IAZ064-065-067-068-078-181700-
   EAST CENTRAL IOWA

CITY           SKY/WX    TMP DP  RH WIND       PRES   REMARKS
DAVENPORT      CLOUDY    25  19  78 E8        30.18R WCI  16
IOWA CITY      CLOUDY    24  17  74 E6        30.17R WCI  17
MT. PLEASANT * CLOUDY    28  27  93 E9        30.14F WCI  20
MUSCATINE *    CLOUDY    27  21  80 E6        30.18R WCI  20
QUAD CITIES    CLOUDY    27  21  78 E8        30.17S WCI  19
$$

IAZ062-063-075>077-085>089-095>099-181700-
   SOUTHEAST IOWA

CITY           SKY/WX    TMP DP  RH WIND       PRES   REMARKS
BURLINGTON     CLOUDY    28  21  75 E8        30.14S WCI  20
FAIRFIELD *    CLOUDY    25  21  86 E9        30.12F WCI  15
FORT MADISON * CLOUDY    27  25  93 E7        30.13F WCI  19
KEOKUK *       CLOUDY    28  25  86 E10       30.12F WCI  19
OSKALOOSA *    CLOUDY    21  17  84 E8        30.13R WCI  11
OTTUMWA        CLOUDY    23  18  81 NE8       30.13R WCI  14
WASHINGTON *   CLOUDY    25  25 100 E8        30.15F WCI  16
$$

ABBREVIATIONS USED IN REMARKS
   TC - TEMPERATURES IN CELSIUS
  WCI - WIND CHILL INDEX
   HX - HEAT INDEX
  VSB - VISIBILITY
$$




USA.gov is the U.S. government's official web portal to all federal, state and local government web resources and services.